Tracking 35331 objects as of 14-Sep-2026
HD Live streaming from Space Station
objects crossing your sky now

STARLINK-3652

Track STARLINK-3652 now!
10-day predictions
STARLINK-3652 is classified as:


NORAD ID: 51991
Int'l Code: 2022-025AM
Launch date: March 9, 2022
Source: United States (US)
Launch site: AIR FORCE EASTERN TEST RANGE (AFETR)
Your satellite tracking list
Your tracking list is empty




NASA's NSSDC Master Catalog

Two Line Element Set (TLE):
1 51991U 22025AM  26256.28455046 -.00006379  00000-0 -17779-3 0  9992
2 51991  53.1584 261.5098 0001164  93.1724 266.9411 15.34402580249592
Source of the keplerian elements: AFSPC